Weather History for KAZO - November, 2013

Change the Weather History Date:

Wednesday, November 27, 2013

  Actual Average Record
Temperature  
Mean Temperature 26 °F 36 °F  
Max Temperature 32 °F 42 °F 65 °F (1990)
Min Temperature 19 °F 29 °F 10 °F (1977)
Degree Days  
Heating Degree Days 39 29  
Month to date heating degree days 710 644  
Since 1 July heating degree days 1254 1236  
Cooling Degree Days 0 0  
Month to date cooling degree days 0 0  
Year to date cooling degree days 725 675  
Moisture  
Dew Point 13 °F    
Average Humidity 57    
Maximum Humidity 71    
Minimum Humidity 43    
Precipitation  
Precipitation 0.00 in 0.10 in 1.71 in (1990)
Month to date precipitation 2.49 2.74  
Year to date precipitation 37.97 33.48  
Sea Level Pressure  
Sea Level Pressure 30.11 in    
Wind  
Wind Speed 12 mph (NNW)    
Max Wind Speed 26 mph    
Max Gust Speed 31 mph    
Visibility 10 miles    
Events      
T = Trace of Precipitation, MM = Missing Value Source: NWS Daily Summary

Daily Weather History Graph

Daily Weather History Graph

Search for Another Location

Airport or City:

Trip Planner

Search our weather history database for the weather conditions in past years. The results will help you decide how hot, cold, wet, or windy it might be!

Date:

Astronomy

Nov. 27, 2013 Rise Set
Actual Time 7:47 AM EST 5:12 PM EST
Civil Twilight 7:16 AM EST 5:43 PM EST
Nautical Twilight 6:41 AM EST 6:18 PM EST
Astronomical Twilight 6:07 AM EST 6:51 PM EST
Moon 1:42 AM EST (11/27) 1:54 PM EST (11/27)
Length of Visible Light 10h 27m
Length of Day
9h 25m
Waning Crescent, 32% of the Moon is Illuminated
Nov 27
Waning Crescent
Dec 2
New
Dec 9
First Quarter
Dec 17
Full
Dec 25
Last Quarter

Hourly Weather History & Observations

Time (EST) Temp. Windchill Dew Point Humidity Pressure Visibility Wind Dir Wind Speed Gust Speed Precip Events Conditions
12:53 AM 24.1 °F 11.5 °F 14.0 °F 65% 30.04 in 10.0 mi NNW 15.0 mph - N/A   Clear
1:40 AM 24.8 °F 11.9 °F 15.8 °F 69% 30.00 in 10.0 mi North 16.1 mph - N/A   Overcast
1:53 AM 25.0 °F 10.9 °F 16.0 °F 69% 30.03 in 10.0 mi North 19.6 mph 29.9 mph N/A   Overcast
2:40 AM 23.0 °F 8.3 °F 14.0 °F 68% 30.01 in 10.0 mi North 19.6 mph 26.5 mph N/A   Scattered Clouds
2:53 AM 23.0 °F 9.6 °F 14.0 °F 68% 30.05 in 10.0 mi North 16.1 mph 25.3 mph N/A   Partly Cloudy
3:53 AM 21.9 °F 9.2 °F 12.9 °F 68% 30.05 in 10.0 mi North 13.8 mph - N/A   Overcast
4:53 AM 21.9 °F 10.4 °F 12.0 °F 66% 30.06 in 10.0 mi North 11.5 mph - N/A   Overcast
5:53 AM 21.9 °F 11.0 °F 12.0 °F 66% 30.08 in 10.0 mi NNW 10.4 mph - N/A   Overcast
6:53 AM 21.9 °F 11.7 °F 12.9 °F 68% 30.09 in 10.0 mi NNW 9.2 mph - N/A   Overcast
7:53 AM 21.9 °F 11.7 °F 12.9 °F 68% 30.10 in 10.0 mi North 9.2 mph - N/A   Mostly Cloudy
8:53 AM 23.0 °F 12.4 °F 12.9 °F 65% 30.11 in 10.0 mi NNW 10.4 mph - N/A   Scattered Clouds
9:53 AM 27.0 °F 16.1 °F 14.0 °F 58% 30.10 in 10.0 mi NNW 12.7 mph - N/A   Partly Cloudy
10:37 AM 26.6 °F 15.7 °F 14.0 °F 59% 30.06 in 10.0 mi NW 12.7 mph - N/A   Mostly Cloudy
10:53 AM 28.0 °F 16.5 °F 14.0 °F 56% 30.10 in 10.0 mi NNW 15.0 mph - N/A   Scattered Clouds
11:53 AM 30.9 °F 20.2 °F 12.0 °F 46% 30.08 in 10.0 mi North 15.0 mph - N/A   Partly Cloudy
12:53 PM 30.9 °F 19.4 °F 10.9 °F 43% 30.07 in 10.0 mi NW 17.3 mph 25.3 mph N/A   Partly Cloudy
1:53 PM 30.9 °F 18.1 °F 10.0 °F 42% 30.07 in 10.0 mi NNW 21.9 mph 29.9 mph N/A   Partly Cloudy
2:53 PM 30.9 °F 18.7 °F 10.0 °F 42% 30.08 in 10.0 mi NW 19.6 mph 28.8 mph N/A   Scattered Clouds
3:53 PM 30.0 °F 19.1 °F 10.9 °F 45% 30.10 in 10.0 mi NW 15.0 mph - N/A   Scattered Clouds
4:53 PM 27.0 °F 16.1 °F 12.0 °F 53% 30.13 in 10.0 mi NNW 12.7 mph - N/A   Scattered Clouds
5:53 PM 25.0 °F 14.8 °F 12.0 °F 58% 30.16 in 10.0 mi NW 10.4 mph - N/A   Clear
6:53 PM 24.1 °F 14.4 °F 12.0 °F 60% 30.18 in 10.0 mi NNW 9.2 mph - N/A   Clear
7:53 PM 23.0 °F 12.4 °F 12.0 °F 63% 30.20 in 10.0 mi NNW 10.4 mph - N/A   Clear
8:53 PM 19.9 °F 12.1 °F 10.9 °F 68% 30.22 in 10.0 mi NNW 5.8 mph - N/A   Clear
9:53 PM 19.9 °F - 10.9 °F 68% 30.22 in 10.0 mi Calm Calm - N/A   Scattered Clouds
10:53 PM 21.9 °F - 14.0 °F 72% 30.23 in 10.0 mi Calm Calm - N/A   Overcast
11:53 PM 21.0 °F - 12.9 °F 71% 30.25 in 10.0 mi Calm Calm - N/A   Scattered Clouds